Hourly Weather Gogaz

Today, 17 June, Thursday

Time Temperature Precipitation Wind Pressure Humidity
00:00 +12°C° 0 mm 3 mps 586 mmHg 48%
01:00 +12°C° 0 mm 3 mps 586 mmHg 45%
02:00 +12°C° 0 mm 3 mps 586 mmHg 41%
03:00 +12°C° 0 mm 3 mps 586 mmHg 38%
04:00 +13°C° 0 mm 3 mps 586 mmHg 41%
05:00 +14°C° 0 mm 3 mps 586 mmHg 43%
06:00 +16°C° 0 mm 3 mps 586 mmHg 46%
07:00 +18°C° 0 mm 3 mps 587 mmHg 40%
08:00 +20°C° 0 mm 3 mps 588 mmHg 34%
09:00 +24°C° 0 mm 2 mps 588 mmHg 28%
10:00 +24°C° 0 mm 2 mps 588 mmHg 29%
11:00 +25°C° 0 mm 3 mps 589 mmHg 30%
12:00 +26°C° 0 mm 3 mps 589 mmHg 31%
13:00 +25°C° 0 mm 3 mps 589 mmHg 32%
14:00 +25°C° 0 mm 3 mps 589 mmHg 34%
15:00 +25°C° 0 mm 3 mps 589 mmHg 35%
16:00 +22°C° 0 mm 3 mps 589 mmHg 43%
17:00 +21°C° 0 mm 2 mps 589 mmHg 51%
18:00 +19°C° 0 mm 2 mps 589 mmHg 59%
19:00 +17°C° 0 mm 2 mps 588 mmHg 66%
20:00 +15°C° 0 mm 1 mps 588 mmHg 73%
21:00 +13°C° 0 mm 1 mps 588 mmHg 80%
22:00 +13°C° 0.3 mm 1 mps 588 mmHg 83%
23:00 +12°C° 0.3 mm 1 mps 588 mmHg 85%

Tomorrow, 18 June, Friday

Time Temperature Precipitation Wind Pressure Humidity
00:00 +12°C° 0.3 mm 1 mps 588 mmHg 88%
01:00 +12°C° 0.1 mm 1 mps 588 mmHg 88%
02:00 +12°C° 0.1 mm 1 mps 589 mmHg 89%
03:00 +12°C° 0.1 mm 1 mps 589 mmHg 90%
04:00 +13°C° 0 mm 1 mps 589 mmHg 86%
05:00 +13°C° 0 mm 1 mps 589 mmHg 82%
06:00 +14°C° 0 mm 1 mps 589 mmHg 78%
07:00 +15°C° 0 mm 1 mps 590 mmHg 72%
08:00 +17°C° 0 mm 2 mps 591 mmHg 65%
09:00 +18°C° 0 mm 2 mps 591 mmHg 58%
10:00 +18°C° 0.3 mm 3 mps 591 mmHg 60%
11:00 +18°C° 0.3 mm 3 mps 591 mmHg 62%
12:00 +18°C° 0.3 mm 3 mps 591 mmHg 65%
13:00 +18°C° 0.7 mm 3 mps 591 mmHg 66%
14:00 +18°C° 0.7 mm 2 mps 591 mmHg 67%
15:00 +17°C° 0.7 mm 2 mps 591 mmHg 69%
16:00 +17°C° 0.2 mm 2 mps 591 mmHg 69%
17:00 +17°C° 0.2 mm 2 mps 591 mmHg 69%
18:00 +16°C° 0.2 mm 2 mps 591 mmHg 70%
19:00 +15°C° 0.1 mm 2 mps 591 mmHg 71%
20:00 +13°C° 0.1 mm 1 mps 590 mmHg 73%
21:00 +12°C° 0.1 mm 1 mps 590 mmHg 75%
22:00 +12°C° 0 mm 1 mps 590 mmHg 73%
23:00 +12°C° 0 mm 1 mps 590 mmHg 70%

Day after tomorrow, 19 June, Saturday

Time Temperature Precipitation Wind Pressure Humidity
00:00 +12°C° 0 mm 2 mps 590 mmHg 67%
01:00 +10°C° 0 mm 2 mps 590 mmHg 66%
02:00 +10°C° 0 mm 2 mps 590 mmHg 65%
03:00 +10°C° 0 mm 2 mps 590 mmHg 64%
04:00 +12°C° 0 mm 1 mps 590 mmHg 61%
05:00 +14°C° 0 mm 1 mps 591 mmHg 58%
06:00 +15°C° 0 mm 1 mps 591 mmHg 55%
07:00 +18°C° 0 mm 1 mps 592 mmHg 48%
08:00 +18°C° 0 mm 2 mps 592 mmHg 41%
09:00 +20°C° 0 mm 2 mps 593 mmHg 35%
10:00 +21°C° 0 mm 2 mps 593 mmHg 35%
11:00 +21°C° 0 mm 3 mps 593 mmHg 36%
12:00 +22°C° 0 mm 3 mps 593 mmHg 36%
13:00 +22°C° 0 mm 3 mps 593 mmHg 38%
14:00 +22°C° 0 mm 3 mps 593 mmHg 39%
15:00 +22°C° 0 mm 3 mps 593 mmHg 41%
16:00 +21°C° 0 mm 3 mps 593 mmHg 46%
17:00 +20°C° 0 mm 2 mps 593 mmHg 50%
18:00 +19°C° 0 mm 2 mps 592 mmHg 55%
19:00 +17°C° 0 mm 2 mps 592 mmHg 55%
20:00 +16°C° 0 mm 2 mps 591 mmHg 56%
21:00 +14°C° 0 mm 2 mps 591 mmHg 57%
22:00 +13°C° 0 mm 2 mps 591 mmHg 54%
23:00 +13°C° 0 mm 2 mps 590 mmHg 50%

20 June, Sunday

Time Temperature Precipitation Wind Pressure Humidity
00:00 +13°C° 0 mm 2 mps 590 mmHg 47%
01:00 +13°C° 0 mm 2 mps 590 mmHg 45%
02:00 +12°C° 0 mm 3 mps 590 mmHg 42%
03:00 +12°C° 0 mm 3 mps 590 mmHg 40%
04:00 +13°C° 0 mm 3 mps 590 mmHg 41%
05:00 +15°C° 0 mm 2 mps 591 mmHg 43%
06:00 +16°C° 0 mm 2 mps 591 mmHg 44%
07:00 +18°C° 0 mm 2 mps 592 mmHg 39%
08:00 +20°C° 0 mm 2 mps 592 mmHg 34%
09:00 +23°C° 0 mm 2 mps 593 mmHg 29%
10:00 +23°C° 0 mm 2 mps 593 mmHg 30%
11:00 +24°C° 0 mm 3 mps 593 mmHg 32%
12:00 +25°C° 0 mm 3 mps 594 mmHg 33%
13:00 +24°C° 0 mm 3 mps 593 mmHg 35%
14:00 +24°C° 0 mm 3 mps 593 mmHg 37%
15:00 +24°C° 0 mm 3 mps 593 mmHg 39%
16:00 +22°C° 0 mm 3 mps 593 mmHg 44%
17:00 +21°C° 0 mm 2 mps 592 mmHg 48%
18:00 +20°C° 0 mm 2 mps 592 mmHg 53%
19:00 +18°C° 0 mm 2 mps 592 mmHg 54%
20:00 +16°C° 0 mm 2 mps 591 mmHg 54%
21:00 +14°C° 0 mm 2 mps 591 mmHg 55%
22:00 +14°C° 0 mm 2 mps 590 mmHg 54%
23:00 +13°C° 0 mm 2 mps 590 mmHg 52%

21 June, Monday

Time Temperature Precipitation Wind Pressure Humidity
00:00 +12°C° 0 mm 3 mps 590 mmHg 51%
01:00 +12°C° 0 mm 3 mps 590 mmHg 50%
02:00 +12°C° 0 mm 3 mps 590 mmHg 49%
03:00 +11°C° 0 mm 3 mps 589 mmHg 48%
04:00 +12°C° 0 mm 3 mps 590 mmHg 49%
05:00 +14°C° 0 mm 3 mps 590 mmHg 49%
06:00 +16°C° 0 mm 2 mps 591 mmHg 50%
07:00 +18°C° 0 mm 2 mps 591 mmHg 44%
08:00 +20°C° 0 mm 2 mps 592 mmHg 37%
09:00 +23°C° 0 mm 2 mps 593 mmHg 31%
10:00 +24°C° 0 mm 2 mps 593 mmHg 31%
11:00 +24°C° 0 mm 3 mps 593 mmHg 32%
12:00 +25°C° 0 mm 3 mps 593 mmHg 32%
13:00 +25°C° 0 mm 3 mps 593 mmHg 32%
14:00 +25°C° 0 mm 3 mps 593 mmHg 32%
15:00 +25°C° 0 mm 3 mps 593 mmHg 32%
16:00 +23°C° 0 mm 2 mps 592 mmHg 36%
17:00 +21°C° 0 mm 2 mps 592 mmHg 41%
18:00 +21°C° 0 mm 1 mps 592 mmHg 46%
19:00 +18°C° 0 mm 2 mps 591 mmHg 47%
20:00 +16°C° 0 mm 2 mps 591 mmHg 48%
21:00 +15°C° 0 mm 2 mps 590 mmHg 48%
22:00 +14°C° 0 mm 2 mps 590 mmHg 47%
23:00 +14°C° 0 mm 2 mps 589 mmHg 46%

22 June, Tuesday

Time Temperature Precipitation Wind Pressure Humidity
00:00 +14°C° 0 mm 2 mps 589 mmHg 45%
01:00 +14°C° 0 mm 2 mps 589 mmHg 44%
02:00 +14°C° 0 mm 2 mps 589 mmHg 43%
03:00 +14°C° 0 mm 2 mps 589 mmHg 42%
04:00 +15°C° 0 mm 2 mps 589 mmHg 43%
05:00 +16°C° 0 mm 2 mps 590 mmHg 45%
06:00 +17°C° 0 mm 2 mps 590 mmHg 46%
07:00 +19°C° 0 mm 2 mps 591 mmHg 41%
08:00 +21°C° 0 mm 2 mps 591 mmHg 36%
09:00 +24°C° 0 mm 2 mps 592 mmHg 31%
10:00 +24°C° 0 mm 2 mps 592 mmHg 31%
11:00 +25°C° 0 mm 2 mps 593 mmHg 31%
12:00 +25°C° 0 mm 3 mps 593 mmHg 32%
13:00 +25°C° 0 mm 3 mps 593 mmHg 31%
14:00 +25°C° 0 mm 3 mps 593 mmHg 30%
15:00 +25°C° 0 mm 3 mps 593 mmHg 29%
16:00 +24°C° 0 mm 2 mps 592 mmHg 34%
17:00 +23°C° 0 mm 2 mps 592 mmHg 38%
18:00 +22°C° 0 mm 1 mps 592 mmHg 42%
19:00 +19°C° 0 mm 2 mps 591 mmHg 42%
20:00 +17°C° 0 mm 2 mps 590 mmHg 41%
21:00 +15°C° 0 mm 2 mps 590 mmHg 41%
22:00 +15°C° 0 mm 2 mps 590 mmHg 41%
23:00 +15°C° 0 mm 2 mps 590 mmHg 41%
Show more

We Need Your Consent

Meteoprog and our Service Providers may store and access personal data such as cookies, device identifiers or other similar technologies on your device and process such data to personalise content and ads, as well as provide social media features and to analyse the traffic.

  • Store and/or access information on your device

    Cookies, device identifiers or other information can be stored or accessed on your device for the purposes indicated above.

  • Personalised ads and content, ad and content measurement, audience insights, and products development

    Ads and content can be personalised based on a profile. More data can be added to better personalise ads and content. Ad and content performance can be measured. Insights about the audience who saw the ads and content can be derived. Such data can be used to develop or improve user’s experience, systems and software.

By clicking ‘I Agree’ you will allow the use of indicated cookies, device identifiers, web beacons or other similar technologies. Your settings can be changed in the browser on your device.

For certain purposes, legitimate interests may be relied on, rather than consent. You can read more about this in our Privacy and Cookie Policy.